Location: Baix
(44.7118°N, 4.7648°E)
Time: 10:43:10
(UTC+00:00)

Tiros 1 despin weight - Pass Details

Date: 30 November 2020
Orbit: 594 x 641 km, 48.2° (Epoch: 17 January)

Event Time Altitude Azimuth Distance (km) Brightness Sun altitude
Rises 16:31:09 0° 291° (WNW) 2,945 ? -5.4°
Reaches altitude 10° 16:33:31 10° 288° (WNW) 2,031 ? -5.8°
Maximum altitude 16:38:07 57° 210° (SSW) 748 ? -6.5°
Drops below altitude 10° 16:42:39 10° 132° (SE) 2,005 ? -7.3°
Sets 16:44:58 0° 128° (SE) 2,903 ? -7.6°
